Time,TemperatureF,DewpointF,PressureIn,WindDirection,WindDirectionDegrees,WindSpeedMPH,WindSpeedGustMPH,Humidity,HourlyPrecipIn,Conditions,Clouds,dailyrainin,SoftwareType,DateUTC
2013-04-13 00:03:00,29.0,29.0,29.89,SSW,194,0.0,3.0,98,0.00,,,0.02,,2013-04-13 04:03:00,
2013-04-13 00:12:00,29.0,29.0,29.89,SSW,194,0.0,3.0,98,0.00,,,0.02,,2013-04-13 04:12:00,
2013-04-13 00:23:00,29.0,28.0,29.90,SSW,194,0.0,4.0,97,0.00,,,0.02,,2013-04-13 04:23:00,
2013-04-13 00:33:00,29.0,28.0,29.89,SSW,194,0.0,2.0,97,0.00,,,0.02,,2013-04-13 04:33:00,
2013-04-13 00:42:00,29.0,28.0,29.89,SSW,194,0.0,2.0,97,0.00,,,0.02,,2013-04-13 04:42:00,
2013-04-13 00:53:00,29.0,28.0,29.89,SSW,194,0.0,2.0,97,0.00,,,0.02,,2013-04-13 04:53:00,
2013-04-13 01:03:00,28.0,27.0,29.89,SSW,194,0.0,3.0,97,0.00,,,0.02,,2013-04-13 05:03:00,
2013-04-13 01:12:00,28.0,27.0,29.89,SSW,194,0.0,3.0,97,0.00,,,0.02,,2013-04-13 05:12:00,
2013-04-13 01:22:00,28.0,28.0,29.89,SSW,194,0.0,85.0,98,0.00,,,0.02,,2013-04-13 05:22:00,
2013-04-13 01:32:00,28.0,28.0,29.89,SSW,194,1.0,3.0,98,0.00,,,0.02,,2013-04-13 05:32:00,
2013-04-13 01:43:00,28.0,28.0,29.89,SSW,194,1.0,3.0,98,0.00,,,0.02,,2013-04-13 05:43:00,
2013-04-13 01:52:00,29.0,29.0,29.88,SSW,194,0.0,2.0,98,0.00,,,0.02,,2013-04-13 05:52:00,
2013-04-13 02:02:00,29.0,29.0,29.89,SSW,194,0.0,2.0,98,0.00,,,0.02,,2013-04-13 06:02:00,
2013-04-13 02:12:00,29.0,29.0,29.89,SSW,194,0.0,2.0,98,0.00,,,0.02,,2013-04-13 06:12:00,
2013-04-13 02:24:00,29.0,29.0,29.91,SSW,194,0.0,2.0,98,0.00,,,0.02,,2013-04-13 06:24:00,
2013-04-13 02:35:00,29.0,29.0,29.87,SSW,194,0.0,71.0,98,0.00,,,0.02,,2013-04-13 06:35:00,
2013-04-13 02:49:00,29.0,29.0,29.87,SSW,194,0.0,71.0,98,0.00,,,0.02,,2013-04-13 06:49:00,
2013-04-13 03:07:00,29.0,29.0,29.89,SSW,194,1.0,3.0,98,0.00,,,0.02,,2013-04-13 07:07:00,
2013-04-13 03:15:00,29.0,29.0,29.89,SSW,194,1.0,3.0,98,0.00,,,0.02,,2013-04-13 07:15:00,
2013-04-13 03:24:00,29.0,29.0,29.88,SSW,194,0.0,2.0,98,0.00,,,0.02,,2013-04-13 07:24:00,
2013-04-13 03:35:00,29.0,29.0,29.85,SSW,194,0.0,2.0,98,0.00,,,0.02,,2013-04-13 07:35:00,
2013-04-13 03:45:00,29.0,29.0,29.85,SSW,194,0.0,2.0,98,0.00,,,0.02,,2013-04-13 07:45:00,
2013-04-13 03:54:00,29.0,28.0,29.85,SSW,194,1.0,4.0,97,0.00,,,0.02,,2013-04-13 07:54:00,
2013-04-13 04:07:00,29.0,29.0,29.85,SSW,194,0.0,2.0,98,0.00,,,0.02,,2013-04-13 08:07:00,
2013-04-13 04:25:00,29.0,29.0,29.86,SSW,194,0.0,2.0,98,0.00,,,0.02,,2013-04-13 08:25:00,
2013-04-13 04:35:00,29.0,29.0,29.85,SSW,194,0.0,0.0,98,0.00,,,0.01,,2013-04-13 08:35:00,
2013-04-13 04:46:00,29.0,29.0,29.85,SSW,194,0.0,0.0,98,0.00,,,0.01,,2013-04-13 08:46:00,
2013-04-13 04:53:00,29.0,29.0,29.85,SSW,194,0.0,0.0,98,0.00,,,0.01,,2013-04-13 08:53:00,
2013-04-13 05:05:00,29.0,29.0,29.85,SSW,194,0.0,0.0,98,0.00,,,0.01,,2013-04-13 09:05:00,
2013-04-13 05:15:00,29.0,29.0,29.85,SSW,194,0.0,0.0,98,0.00,,,0.01,,2013-04-13 09:15:00,
2013-04-13 05:25:00,29.0,29.0,29.84,SSW,194,0.0,0.0,98,0.00,,,0.01,,2013-04-13 09:25:00,
2013-04-13 05:38:00,29.0,29.0,29.85,SSW,194,0.0,1.0,98,0.00,,,0.00,,2013-04-13 09:38:00,
2013-04-13 05:51:00,29.0,29.0,29.85,SSW,194,0.0,1.0,98,0.00,,,0.00,,2013-04-13 09:51:00,
2013-04-13 06:05:00,28.0,28.0,29.85,SSW,194,0.0,1.0,98,0.00,,,0.00,,2013-04-13 10:05:00,
2013-04-13 06:16:00,28.0,28.0,29.85,SSW,194,0.0,110.0,98,0.00,,,0.00,,2013-04-13 10:16:00,
2013-04-13 06:25:00,28.0,28.0,29.85,SSW,194,0.0,110.0,98,0.00,,,0.00,,2013-04-13 10:25:00,
2013-04-13 06:37:00,28.0,28.0,29.86,SSW,194,0.0,0.0,98,0.00,,,0.00,,2013-04-13 10:37:00,
2013-04-13 06:48:00,28.0,28.0,29.86,SSW,194,0.0,0.0,98,0.00,,,0.00,,2013-04-13 10:48:00,
2013-04-13 06:54:00,28.0,28.0,29.87,SSW,194,0.0,0.0,98,0.00,,,0.00,,2013-04-13 10:54:00,
2013-04-13 07:08:00,29.0,29.0,29.87,SSW,194,0.0,0.0,98,0.00,,,0.00,,2013-04-13 11:08:00,
2013-04-13 07:14:00,29.0,29.0,29.87,SSW,194,0.0,0.0,98,0.00,,,0.00,,2013-04-13 11:14:00,
2013-04-13 07:24:00,29.0,29.0,29.87,SSW,194,0.0,0.0,98,0.00,,,0.00,,2013-04-13 11:24:00,
2013-04-13 07:34:00,29.0,29.0,29.87,SSW,194,0.0,0.0,98,0.00,,,0.00,,2013-04-13 11:34:00,
2013-04-13 07:45:00,29.0,29.0,29.87,SSW,194,0.0,0.0,98,0.00,,,0.00,,2013-04-13 11:45:00,
2013-04-13 07:53:00,29.0,29.0,29.87,SSW,194,0.0,0.0,98,0.00,,,0.00,,2013-04-13 11:53:00,
2013-04-13 08:08:00,30.0,29.0,29.87,SSW,194,0.0,0.0,98,0.00,,,0.00,,2013-04-13 12:08:00,
2013-04-13 08:16:00,30.0,29.0,29.87,SSW,194,0.0,0.0,98,0.00,,,0.00,,2013-04-13 12:16:00,
2013-04-13 08:25:00,30.0,29.0,29.88,SSW,194,0.0,1.0,98,0.00,,,0.00,,2013-04-13 12:25:00,
2013-04-13 08:37:00,31.0,31.0,29.88,SSW,194,0.0,2.0,98,0.00,,,0.00,,2013-04-13 12:37:00,
2013-04-13 08:48:00,31.0,31.0,29.88,SSW,194,0.0,2.0,98,0.00,,,0.00,,2013-04-13 12:48:00,
2013-04-13 08:54:00,31.0,31.0,29.88,SSW,194,0.0,2.0,98,0.00,,,0.00,,2013-04-13 12:54:00,
2013-04-13 09:08:00,31.0,31.0,29.87,SSW,194,0.0,0.0,98,0.00,,,0.00,,2013-04-13 13:08:00,
2013-04-13 09:16:00,31.0,31.0,29.87,SSW,194,0.0,0.0,98,0.00,,,0.00,,2013-04-13 13:16:00,
2013-04-13 09:30:00,31.0,30.0,29.87,SSW,195,0.0,1.0,97,0.00,,,0.00,,2013-04-13 13:30:00,
2013-04-13 09:35:00,31.0,30.0,29.87,SSW,194,0.0,3.0,97,0.00,,,0.00,,2013-04-13 13:35:00,
2013-04-13 09:48:00,31.0,30.0,29.87,SSW,194,0.0,3.0,97,0.00,,,0.00,,2013-04-13 13:48:00,
2013-04-13 10:05:00,31.0,31.0,29.86,SSW,194,0.0,2.0,98,0.00,,,0.00,,2013-04-13 14:05:00,
2013-04-13 10:15:00,31.0,31.0,29.86,SSW,194,0.0,2.0,98,0.00,,,0.00,,2013-04-13 14:15:00,
2013-04-13 10:39:00,32.0,31.0,29.87,ENE,74,0.0,2.0,97,0.00,,,0.00,,2013-04-13 14:39:00,
2013-04-13 10:55:00,32.0,31.0,29.87,East,92,1.0,4.0,97,0.00,,,0.00,,2013-04-13 14:55:00,
2013-04-13 11:05:00,33.0,32.0,29.87,NW,309,1.0,2.0,97,0.00,,,0.00,,2013-04-13 15:05:00,
2013-04-13 11:15:00,33.0,32.0,29.87,NW,309,1.0,2.0,97,0.00,,,0.00,,2013-04-13 15:15:00,
2013-04-13 11:29:00,34.0,33.0,29.88,NNW,331,0.0,3.0,97,0.00,,,0.00,,2013-04-13 15:29:00,
2013-04-13 11:37:00,35.0,34.0,29.88,West,259,2.0,5.0,97,0.00,,,0.00,,2013-04-13 15:37:00,
2013-04-13 11:44:00,35.0,34.0,29.88,West,259,2.0,5.0,97,0.00,,,0.00,,2013-04-13 15:44:00,
2013-04-13 11:55:00,36.0,35.0,29.87,West,279,1.0,5.0,97,0.00,,,0.00,,2013-04-13 15:55:00,
2013-04-13 12:08:00,37.0,36.0,29.87,WNW,298,2.0,8.0,96,0.00,,,0.00,,2013-04-13 16:08:00,
2013-04-13 12:16:00,37.0,36.0,29.87,WNW,298,2.0,8.0,96,0.00,,,0.00,,2013-04-13 16:16:00,
2013-04-13 12:25:00,38.0,37.0,29.88,West,278,3.0,11.0,95,0.00,,,0.00,,2013-04-13 16:25:00,
2013-04-13 12:36:00,39.0,38.0,29.88,West,262,2.0,9.0,95,0.00,,,0.00,,2013-04-13 16:36:00,
2013-04-13 12:47:00,39.0,38.0,29.88,West,262,2.0,9.0,95,0.00,,,0.00,,2013-04-13 16:47:00,
2013-04-13 12:54:00,39.0,36.0,29.87,West,269,3.0,8.0,90,0.00,,,0.00,,2013-04-13 16:54:00,
2013-04-13 13:08:00,39.0,36.0,29.88,NW,316,0.0,3.0,90,0.00,,,0.00,,2013-04-13 17:08:00,
2013-04-13 13:22:00,39.0,36.0,29.88,NW,316,0.0,3.0,90,0.00,,,0.00,,2013-04-13 17:22:00,
2013-04-13 13:38:00,41.0,37.0,29.86,WNW,283,3.0,10.0,84,0.00,,,0.00,,2013-04-13 17:38:00,
2013-04-13 13:44:00,41.0,37.0,29.86,WNW,283,3.0,10.0,84,0.00,,,0.00,,2013-04-13 17:44:00,
2013-04-13 13:59:00,42.0,36.0,29.86,NW,304,2.0,8.0,80,0.00,,,0.00,,2013-04-13 17:59:00,
2013-04-13 14:15:00,43.0,37.0,29.85,NW,311,1.0,6.0,80,0.00,,,0.00,,2013-04-13 18:15:00,
2013-04-13 14:25:00,42.0,36.0,29.85,West,278,1.0,9.0,78,0.01,,,0.01,,2013-04-13 18:25:00,
2013-04-13 14:33:00,43.0,36.0,29.85,West,269,1.0,7.0,76,0.01,,,0.01,,2013-04-13 18:33:00,
2013-04-13 14:42:00,43.0,36.0,29.85,West,269,1.0,7.0,76,0.01,,,0.01,,2013-04-13 18:42:00,
2013-04-13 14:52:00,42.0,35.0,29.85,WSW,252,1.0,5.0,76,0.01,,,0.01,,2013-04-13 18:52:00,
2013-04-13 15:03:00,42.0,35.0,29.85,WSW,257,0.0,4.0,76,0.01,,,0.01,,2013-04-13 19:03:00,
2013-04-13 15:12:00,42.0,35.0,29.85,WSW,257,0.0,4.0,76,0.01,,,0.01,,2013-04-13 19:12:00,
2013-04-13 15:22:00,43.0,35.0,29.84,West,271,2.0,5.0,72,0.00,,,0.01,,2013-04-13 19:22:00,
2013-04-13 15:33:00,45.0,34.0,29.83,WSW,239,0.0,5.0,65,0.00,,,0.01,,2013-04-13 19:33:00,
2013-04-13 15:42:00,45.0,34.0,29.83,WSW,239,0.0,5.0,65,0.00,,,0.01,,2013-04-13 19:42:00,
2013-04-13 15:52:00,47.0,32.0,29.83,WNW,291,3.0,6.0,56,0.00,,,0.01,,2013-04-13 19:52:00,
2013-04-13 16:02:00,47.0,34.0,29.83,SE,146,0.0,5.0,60,0.00,,,0.01,,2013-04-13 20:02:00,
2013-04-13 16:12:00,47.0,34.0,29.83,SE,146,0.0,5.0,60,0.00,,,0.01,,2013-04-13 20:12:00,
2013-04-13 16:22:00,46.0,32.0,29.83,North,354,0.0,6.0,58,0.00,,,0.01,,2013-04-13 20:22:00,
2013-04-13 16:32:00,46.0,33.0,29.83,WNW,285,0.0,4.0,60,0.00,,,0.01,,2013-04-13 20:32:00,
2013-04-13 16:42:00,46.0,33.0,29.83,WNW,285,0.0,4.0,60,0.00,,,0.01,,2013-04-13 20:42:00,
2013-04-13 16:52:00,45.0,32.0,29.83,West,280,2.0,5.0,60,0.00,,,0.01,,2013-04-13 20:52:00,
2013-04-13 17:02:00,45.0,33.0,29.84,WNW,297,1.0,8.0,62,0.00,,,0.01,,2013-04-13 21:02:00,
2013-04-13 17:12:00,45.0,33.0,29.84,WNW,297,1.0,8.0,62,0.00,,,0.01,,2013-04-13 21:12:00,
2013-04-13 17:22:00,44.0,33.0,29.85,West,271,1.0,6.0,64,0.00,,,0.01,,2013-04-13 21:22:00,
2013-04-13 17:33:00,44.0,33.0,29.85,WNW,288,2.0,6.0,64,0.00,,,0.01,,2013-04-13 21:33:00,
2013-04-13 17:43:00,44.0,33.0,29.85,WNW,288,2.0,6.0,64,0.00,,,0.01,,2013-04-13 21:43:00,
2013-04-13 17:52:00,44.0,33.0,29.87,WSW,252,1.0,4.0,64,0.00,,,0.01,,2013-04-13 21:52:00,
2013-04-13 18:03:00,44.0,33.0,29.88,West,278,3.0,7.0,65,0.00,,,0.01,,2013-04-13 22:03:00,
2013-04-13 18:13:00,44.0,33.0,29.88,West,278,3.0,7.0,65,0.00,,,0.01,,2013-04-13 22:13:00,
2013-04-13 18:22:00,43.0,33.0,29.89,WNW,298,2.0,6.0,67,0.00,,,0.01,,2013-04-13 22:22:00,
2013-04-13 18:33:00,43.0,34.0,29.89,WSW,246,1.0,2.0,70,0.00,,,0.01,,2013-04-13 22:33:00,
2013-04-13 18:42:00,43.0,34.0,29.89,WSW,246,1.0,2.0,70,0.00,,,0.01,,2013-04-13 22:42:00,
2013-04-13 18:52:00,42.0,34.0,29.90,WSW,238,0.0,2.0,72,0.00,,,0.01,,2013-04-13 22:52:00,
2013-04-13 19:02:00,41.0,34.0,29.90,SSW,210,0.0,1.0,75,0.00,,,0.01,,2013-04-13 23:02:00,
2013-04-13 19:12:00,41.0,34.0,29.90,SSW,210,0.0,1.0,75,0.00,,,0.01,,2013-04-13 23:12:00,
2013-04-13 19:22:00,40.0,33.0,29.90,SE,126,0.0,1.0,77,0.00,,,0.01,,2013-04-13 23:22:00,
2013-04-13 19:33:00,39.0,33.0,29.89,SE,124,0.0,1.0,79,0.00,,,0.01,,2013-04-13 23:33:00,
2013-04-13 19:42:00,39.0,33.0,29.89,SE,124,0.0,1.0,79,0.00,,,0.01,,2013-04-13 23:42:00,
2013-04-13 19:52:00,39.0,33.0,29.91,West,273,0.0,2.0,80,0.00,,,0.01,,2013-04-13 23:52:00,
2013-04-13 20:03:00,40.0,34.0,29.92,West,269,0.0,2.0,78,0.00,,,0.01,,2013-04-14 00:03:00,
2013-04-13 20:12:00,40.0,34.0,29.92,West,269,0.0,2.0,78,0.00,,,0.01,,2013-04-14 00:12:00,
2013-04-13 20:22:00,40.0,34.0,29.92,SW,232,0.0,1.0,79,0.00,,,0.01,,2013-04-14 00:22:00,
2013-04-13 20:32:00,40.0,34.0,29.93,West,281,0.0,9.0,80,0.00,,,0.01,,2013-04-14 00:32:00,
2013-04-13 20:42:00,40.0,34.0,29.93,West,281,0.0,9.0,80,0.00,,,0.01,,2013-04-14 00:42:00,
2013-04-13 20:52:00,39.0,34.0,29.93,WNW,286,0.0,3.0,82,0.00,,,0.01,,2013-04-14 00:52:00,
2013-04-13 21:02:00,38.0,34.0,29.93,SW,236,0.0,1.0,84,0.00,,,0.01,,2013-04-14 01:02:00,
2013-04-13 21:12:00,38.0,34.0,29.93,SW,236,0.0,1.0,84,0.00,,,0.01,,2013-04-14 01:12:00,
2013-04-13 21:22:00,38.0,34.0,29.93,East,98,0.0,1.0,85,0.00,,,0.01,,2013-04-14 01:22:00,
2013-04-13 21:32:00,38.0,34.0,29.93,East,97,0.0,2.0,86,0.00,,,0.01,,2013-04-14 01:32:00,
2013-04-13 21:42:00,38.0,34.0,29.93,East,97,0.0,2.0,86,0.00,,,0.01,,2013-04-14 01:42:00,
2013-04-13 21:52:00,37.0,34.0,29.93,East,96,0.0,0.0,87,0.00,,,0.01,,2013-04-14 01:52:00,
2013-04-13 22:02:00,37.0,34.0,29.93,ESE,118,0.0,0.0,88,0.00,,,0.01,,2013-04-14 02:02:00,
2013-04-13 22:12:00,37.0,34.0,29.93,ESE,118,0.0,0.0,88,0.00,,,0.01,,2013-04-14 02:12:00,
2013-04-13 22:22:00,37.0,34.0,29.94,ESE,118,0.0,0.0,88,0.00,,,0.01,,2013-04-14 02:22:00,
2013-04-13 22:32:00,37.0,34.0,29.95,ESE,118,0.0,0.0,88,0.00,,,0.01,,2013-04-14 02:32:00,
2013-04-13 22:42:00,37.0,34.0,29.95,ESE,118,0.0,0.0,88,0.00,,,0.01,,2013-04-14 02:42:00,
2013-04-13 22:52:00,37.0,35.0,29.96,West,278,1.0,4.0,91,0.00,,,0.01,,2013-04-14 02:52:00,
2013-04-13 23:03:00,36.0,34.0,29.96,SW,217,0.0,5.0,93,0.01,,,0.02,,2013-04-14 03:03:00,
2013-04-13 23:12:00,36.0,34.0,29.96,SW,217,0.0,5.0,93,0.01,,,0.02,,2013-04-14 03:12:00,
2013-04-13 23:22:00,36.0,34.0,29.96,West,276,2.0,6.0,94,0.01,,,0.02,,2013-04-14 03:22:00,
2013-04-13 23:33:00,36.0,34.0,29.95,West,262,0.0,2.0,93,0.01,,,0.02,,2013-04-14 03:33:00,
2013-04-13 23:42:00,36.0,34.0,29.95,West,262,0.0,2.0,93,0.01,,,0.02,,2013-04-14 03:42:00,
2013-04-13 23:53:00,35.0,33.0,29.95,West,262,0.0,0.0,94,0.01,,,0.02,,2013-04-14 03:53:00,